This demonstration page uses our WeatherBlox Daily Observations layout. Learn more.

Left ArrowRight Arrow

Hourly Observations for February 17, 2019

Temp ( °F °C ) Dew Point ( °F °C ) Humidity (%) Winds ( mph kmh ) Pressure ( in mb ) Visibility ( mi km ) Precip ( " mm )
12:53 am 00:53 Clear 48 8.9 46 7.8 93 93 Calm 29.87 1012 10 16 0.00 0.00
1:53 am 01:53 Partly Cloudy 48 8.9 47 8.3 96 96 Calm 29.87 1011 10 16 0.00 0.00
2:48 am 02:48 Mostly Cloudy 48 9 46 8 94 94 Calm 29.89 1012 10 16 0.00 0.00
2:53 am 02:53 Cloudy 48 8.9 47 8.3 96 96 Calm 29.87 1012 10 16 0.00 0.00
3:53 am 03:53 Cloudy 49 9.4 48 8.9 97 97 N 3 6 29.87 1012 10 16 0.00 0.03
4:27 am 04:27 Cloudy 50 10 49 9.4 96 96 NNE 5 7 29.88 1012 10 16 0.00 0.00
4:53 am 04:53 Cloudy with Light Rain 51 10.6 49 9.4 92 92 VRB 3 6 29.87 1012 10 16 0.00 0.03
5:53 am 05:53 Cloudy with Light Rain 51 10.6 49 9.4 92 92 E 6 9 29.88 1012 10 16 0.00 0.03
6:53 am 06:53 Cloudy 50 10 49 9.4 96 96 E 9 15 29.91 1013 10 16 0.01 0.25
7:04 am 07:04 Cloudy 50 10 49 9.4 96 96 E 6 9 29.93 1014 10 16 0.00 0.00
7:53 am 07:53 Cloudy 50 10 49 9.4 96 96 E 6 9 29.93 1013 10 16 0.00 0.03
8:53 am 08:53 Cloudy 50 10 48 8.9 93 93 E 7 11 29.95 1014 10 16 0.00 0.03
9:53 am 09:53 Cloudy 49 9.4 48 8.9 97 97 E 8 13 29.94 1014 10 16 0.00 0.00
10:30 am 10:30 Cloudy with Light Rain 49 9.4 48 8.9 97 97 E 7 11 29.96 1015 3 4 0.01 0.25
10:53 am 10:53 Cloudy with Light Rain 49 9.4 48 8.9 97 97 VRB 5 7 29.96 1015 7 11 0.01 0.25
11:53 am 11:53 Cloudy with Mist and Fog 49 9.4 48 8.9 97 97 E 7 11 29.98 1015 3 5 0.01 0.25
12:00 pm 12:00 Cloudy with Light Rain 49 9.4 49 9.4 100 100 ENE 5 7 29.99 1016 2 3 0.00 0.03
12:14 pm 12:14 Cloudy with Light Rain 49 9.4 49 9.4 100 100 E 5 7 29.99 1016 2 3 0.01 0.25
12:22 pm 12:22 Cloudy with Mist and Fog 49 9.4 49 9.4 100 100 E 7 11 29.99 1016 3 4 0.01 0.25
12:40 pm 12:40 Cloudy with Mist and Fog 49 9.4 49 9.4 100 100 ENE 8 13 29.97 1015 4 6 0.01 0.25
12:53 pm 12:53 Cloudy with Mist and Fog 49 9.4 49 9.4 100 100 ESE 6 9 29.96 1015 4 6 0.01 0.25
1:53 pm 13:53 Cloudy 49 9.4 49 9.4 100 100 ESE 7 11 29.91 1013 10 16 0.00 0.03
2:44 pm 14:44 Cloudy with Light Rain 49 9.4 49 9.4 100 100 E 6 9 29.92 1013 2 3 0.01 0.25
2:53 pm 14:53 Cloudy with Light Rain 49 9.4 49 9.4 100 100 E 8 13 29.89 1012 2 3 0.02 0.51
3:02 pm 15:02 Cloudy with Light Rain 49 9.4 49 9.4 100 100 E 7 11 29.90 1013 3 4 0.00 0.03
3:16 pm 15:16 Cloudy with Light Rain 49 9.4 49 9.4 100 100 E 5 7 29.91 1013 6 10 0.00 0.03
3:53 pm 15:53 Cloudy with Light Rain 49 9.4 49 9.4 100 100 E 6 9 29.88 1012 9 14 0.02 0.51
4:28 pm 16:28 Cloudy with Light Rain 49 9.4 49 9.4 100 100 ENE 7 11 29.90 1013 5 8 0.01 0.25
4:53 pm 16:53 Cloudy with Light Rain 48 8.9 48 8.9 100 100 E 7 11 29.86 1011 5 8 0.02 0.51
5:53 pm 17:53 Cloudy with Mist and Fog 48 8.9 48 8.9 100 100 E 7 11 29.86 1011 1 2 0.00 0.03
6:53 pm 18:53 Cloudy with Mist and Fog 48 8.9 48 8.9 100 100 ENE 8 13 29.86 1011 1 2 0.00 0.00
7:00 pm 19:00 Cloudy with Mist and Fog 48 8.9 48 8.9 100 100 ENE 6 9 29.88 1012 3 5 0.00 0.00
7:07 pm 19:07 Cloudy with Mist and Fog 48 8.9 48 8.9 100 100 E 8 13 29.88 1012 3 5 0.00 0.00
7:18 pm 19:18 Cloudy with Mist and Fog 48 8.9 48 8.9 100 100 E 8 13 29.87 1012 2 3 0.00 0.00
7:53 pm 19:53 Cloudy with Mist and Fog 48 8.9 48 8.9 100 100 E 6 9 29.85 1011 2 3 0.00 0.00
8:53 pm 20:53 Cloudy with Light Rain 48 8.9 48 8.9 100 100 undefined N/A 29.85 1011 3 5 0.00 0.03
9:00 pm 21:00 Cloudy with Light Rain 48 8.9 48 8.9 100 100 VRB 5 7 29.85 1011 2 3 0.00 0.03
9:13 pm 21:13 Cloudy with Mist and Fog 49 9.4 49 9.4 100 100 VRB 6 9 29.86 1011 3 5 0.00 0.03
9:20 pm 21:20 Cloudy with Mist and Fog 49 9.4 49 9.4 100 100 VRB 6 9 29.89 1012 2 3 0.00 0.03
9:53 pm 21:53 Cloudy with Rain 48 8.9 48 8.9 100 100 VRB 7 11 29.93 1014 2 3 0.02 0.51
10:00 pm 22:00 Cloudy with Rain 48 8.9 48 8.9 100 100 N 13 20 29.95 1014 4 6 0.01 0.25
10:12 pm 22:12 Cloudy with Light Rain 46 7.8 46 7.8 100 100 ENE 12 19 29.93 1013 5 8 0.03 0.76
10:19 pm 22:19 Cloudy with Light Rain 46 7.8 46 7.8 100 100 NE 8 13 29.95 1014 6 10 0.03 0.76
10:36 pm 22:36 Cloudy with Light Rain 46 7.8 46 7.8 100 100 E 5 7 29.94 1014 10 16 0.04 1.02
10:53 pm 22:53 Cloudy 46 7.8 46 7.8 100 100 N 6 9 29.93 1013 10 16 0.04 1.02
11:12 pm 23:12 Cloudy 46 7.8 46 7.8 100 100 N 5 7 29.96 1014 10 16 0.00 0.00
11:39 pm 23:39 Cloudy 46 7.8 46 7.8 100 100 Calm 29.96 1014 10 16 0.00 0.00
11:53 pm 23:53 Cloudy 46 7.8 46 7.8 100 100 Calm 29.95 1014 10 16 0.00 0.00

Powered by AerisWeather